Pompano Beach, FL

10:21 PM EST on February 22, 2017 (GMT -0500)
Pompano Beach

Weather History for KPMP - January, 2012

Change the Weather History Date:

Saturday, January 21, 2012

  Actual Average Record
Temperature  
Mean Temperature 72 °F -  
Max Temperature 78 °F 77 °F 86 °F (1975)
Min Temperature 66 °F 57 °F 35 °F (1961)
Cooling Degree Days 7    
Growing Degree Days 22 (Base 50)    
Moisture  
Dew Point 59 °F    
Average Humidity 64    
Maximum Humidity 87    
Minimum Humidity 53    
Precipitation  
Precipitation 0.00 in - - ()
Sea Level Pressure  
Sea Level Pressure 30.12 in    
Wind  
Wind Speed 8 mph (SSE)    
Max Wind Speed 15 mph    
Max Gust Speed 21 mph    
Visibility 10 miles    
Events      
Averages and records for this station are not official NWS values.
T = Trace of Precipitation, MM = Missing Value Source: NWS Daily Summary

Daily Weather History Graph

Daily Weather History Graph

Search for Another Location

Airport or City:

Trip Planner

Search our weather history database for the weather conditions in past years. The results will help you decide how hot, cold, wet, or windy it might be!

Date:

Astronomy

Jan. 21, 2012 Rise Set
Actual Time 7:08 AM EST 5:54 PM EST
Civil Twilight 6:44 AM EST 6:19 PM EST
Nautical Twilight 6:16 AM EST 6:47 PM EST
Astronomical Twilight 5:48 AM EST 7:15 PM EST
Moon 5:34 AM EST (1/21) 4:31 PM EST (1/21)
Length of Visible Light 11h 35m
Length of Day
10h 45m
Waning Crescent, 3% of the Moon is Illuminated
Jan 21
Waning Crescent
Jan 23
New
Jan 30
First Quarter
Feb 7
Full
Feb 14
Last Quarter

Hourly Weather History & Observations

Time (EST) Temp. Dew Point Humidity Pressure Visibility Wind Dir Wind Speed Gust Speed Precip Events Conditions
12:53 AM 70.0 °F 57.0 °F 63% 30.16 in 10.0 mi SE 8.1 mph - N/A   Mostly Cloudy
1:53 AM 70.0 °F 57.0 °F 63% 30.16 in 10.0 mi SE 8.1 mph - N/A   Mostly Cloudy
2:53 AM 70.0 °F 57.0 °F 63% 30.15 in 10.0 mi SE 9.2 mph - N/A   Mostly Cloudy
3:53 AM 69.1 °F 55.9 °F 63% 30.13 in 10.0 mi ESE 8.1 mph - N/A   Mostly Cloudy
4:53 AM 66.9 °F 55.9 °F 68% 30.13 in 10.0 mi ESE 4.6 mph - N/A   Partly Cloudy
5:53 AM 68.0 °F 57.0 °F 68% 30.13 in 10.0 mi Calm Calm - N/A   Overcast
6:53 AM 66.9 °F 55.9 °F 68% 30.14 in 10.0 mi SE 5.8 mph - N/A   Clear
7:53 AM 69.1 °F 57.0 °F 65% 30.15 in 10.0 mi Calm Calm - N/A   Scattered Clouds
8:53 AM 73.0 °F 57.9 °F 59% 30.17 in 10.0 mi SE 9.2 mph - N/A   Scattered Clouds
9:53 AM 75.0 °F 57.0 °F 53% 30.18 in 10.0 mi South 8.1 mph - N/A   Scattered Clouds
10:53 AM 75.0 °F 57.9 °F 55% 30.17 in 10.0 mi SSE 9.2 mph - N/A   Mostly Cloudy
11:53 AM 75.9 °F 57.9 °F 54% 30.14 in 10.0 mi SSE 15.0 mph - N/A   Scattered Clouds
12:53 PM 77.0 °F 59.0 °F 54% 30.10 in 10.0 mi SE 11.5 mph - N/A   Scattered Clouds
1:53 PM 77.0 °F 60.1 °F 56% 30.09 in 10.0 mi SSE 12.7 mph 19.6 mph N/A   Scattered Clouds
2:53 PM 78.1 °F 61.0 °F 56% 30.08 in 10.0 mi SE 15.0 mph 20.7 mph N/A   Partly Cloudy
3:53 PM 77.0 °F 60.1 °F 56% 30.08 in 10.0 mi SSE 11.5 mph - N/A   Partly Cloudy
4:53 PM 75.0 °F 60.1 °F 60% 30.07 in 10.0 mi SSE 10.4 mph - N/A   Partly Cloudy
5:53 PM 73.0 °F 61.0 °F 66% 30.07 in 10.0 mi SSE 9.2 mph - N/A   Partly Cloudy
6:53 PM 73.0 °F 62.1 °F 68% 30.09 in 10.0 mi SSE 8.1 mph - N/A   Clear
7:53 PM 73.0 °F 62.1 °F 68% 30.10 in 10.0 mi SSE 4.6 mph - N/A   Clear
8:53 PM 72.0 °F 63.0 °F 73% 30.11 in 10.0 mi SSE 4.6 mph - N/A   Clear
10:53 PM 68.0 °F 64.0 °F 87% 30.12 in 10.0 mi West 4.6 mph - N/A   Clear
11:53 PM 69.1 °F 64.0 °F 84% 30.13 in 10.0 mi WNW 8.1 mph - N/A   Mostly Cloudy